Temperature
17 17 17 18 17 18 19 21 23 22 22 21 21 21 20 19 18 16 15 15 14 14 14 15 15 15 14 14 14 14 14 14 14 15 15 15 15 14 14 14 14 14 14 14 14 14 14 14 14
17 17 17 18 18 18 20 21 21 21 21 20 21 21 20 18 17 15 15 14 14 14 14 14 14 14 14 14 14 14 14 14 14 14 14 14 14 14 14 14 14 14 14 14 14 14 14 14 14
17 17 18 18 19 19 20 21 20 20 20 20 20 20 19 17 16 15 14 14 14 14 14 14 14 14 14 14 14 14 14 14 14 14 14 14 14 14 14 14 14 14 14 14 14 14 14 14 14
16 17 18 18 19 20 21 20 20 20 20 20 20 19 17 16 15 15 14 14 14 13 14 14 14 14 14 14 14 14 14 14 14 14 14 14 14 14 14 14 14 14 14 14 14 14 14 14 14
16 17 17 18 19 20 20 20 20 20 20 20 20 18 16 15 15 14 14 14 13 13 14 14 14 14 13 13 13 13 14 14 13 13 13 13 13 14 13 14 14 14 14 14 14 14 13 13 13
17 18 17 18 19 20 20 20 20 20 20 20 19 18 15 14 14 14 14 13 13 13 13 13 13 13 13 13 13 13 13 13 13 13 13 13 13 13 13 13 13 13 13 13 13 13 13 13 13
17 17 17 18 19 19 19 19 19 19 19 19 19 17 15 14 14 14 13 13 13 13 13 13 13 13 13 13 13 13 13 13 13 13 13 13 13 13 13 13 13 13 13 13 13 13 13 13 13
16 16 18 18 19 19 19 19 18 18 18 18 18 17 14 14 14 13 13 13 12 12 13 13 13 13 12 12 12 12 12 12 12 13 13 13 13 13 12 13 13 13 13 13 12 12 12 12 12
16 15 16 18 18 18 18 18 18 17 17 17 16 16 15 14 13 13 13 12 12 12 12 12 12 12 12 12 12 12 12 12 12 12 12 12 12 12 12 12 12 12 12 12 12 12 12 12 12
16 15 16 18 18 17 17 17 17 17 17 16 16 15 14 13 13 13 12 12 12 12 12 12 12 12 12 12 12 12 12 12 12 12 12 12 12 12 12 12 12 12 12 12 12 11 11 11 11
16 15 16 17 17 16 16 17 17 17 16 16 15 14 13 13 12 12 12 12 12 11 11 11 11 11 11 12 12 11 11 11 11 12 12 12 12 12 12 12 11 11 12 12 11 11 11 11 11
15 16 16 16 15 15 15 16 16 16 15 15 15 14 13 13 12 12 12 12 11 11 11 11 11 11 11 11 11 11 11 11 11 11 11 11 11 11 11 11 11 11 11 11 11 11 10 10 10
15 15 15 15 15 14 14 15 15 15 15 15 14 14 13 13 12 12 12 11 11 11 11 11 11 11 11 11 11 11 11 11 11 11 11 11 11 11 11 11 11 11 11 10 10 10 10 10 10
14 14 14 14 14 14 13 14 14 14 14 14 14 13 12 12 12 11 11 11 11 10 11 11 11 11 10 10 10 10 10 10 10 10 10 10 10 10 10 10 10 10 10 10 10 10 10 9 9
14 13 13 14 14 14 13 12 13 14 14 13 13 13 12 12 11 11 11 11 10 10 10 10 10 10 10 10 10 10 10 10 10 10 10 10 10 10 10 10 10 10 10 10 9 9 9 9 9
13 13 12 14 14 13 12 11 13 14 13 13 13 12 12 12 11 11 11 10 10 10 10 10 9 9 9 9 9 9 9 9 9 9 9 9 9 9 9 9 9 9 9 9 9 9 9 9 8
12 12 12 13 13 13 12 11 13 14 13 13 13 12 12 12 11 11 10 10 10 9 9 9 9 9 9 9 9 9 9 9 9 9 9 9 9 9 9 9 9 9 9 9 9 9 8 8 8
12 12 13 13 13 12 11 11 13 13 13 13 13 12 12 11 11 10 10 10 9 9 9 9 9 8 8 8 8 8 8 8 8 8 8 8 8 8 8 8 8 8 8 8 8 8 8 8 8
12 12 12 12 12 11 11 11 12 13 13 12 12 12 11 11 10 10 10 9 9 9 8 8 8 8 8 8 8 8 8 8 8 8 8 8 8 8 8 8 8 8 8 8 8 8 7 7 7
11 11 11 11 12 11 10 11 12 12 11 12 12 11 11 10 10 10 9 9 9 8 8 8 8 8 7 7 7 7 7 7 7 7 7 7 7 7 7 7 8 7 7 7 7 7 7 7 7
11 10 10 10 10 11 10 10 11 11 12 11 11 11 11 10 10 9 9 8 8 8 8 8 8 7 7 7 7 7 7 7 7 7 7 7 7 7 7 7 7 7 7 7 7 7 7 7 6
9 10 10 9 8 8 10 8 10 11 10 10 11 10 10 10 9 9 8 8 8 8 7 7 7 7 7 7 7 7 6 6 6 6 6 6 6 6 6 6 6 6 6 6 6 6 6 6 6
9 9 9 9 8 7 8 8 8 11 10 10 10 10 10 9 9 8 8 8 7 7 7 7 7 7 7 6 6 6 6 6 6 6 6 6 6 6 6 6 6 6 6 6 6 6 6 6 6
9 8 8 8 7 6 8 8 8 10 10 10 9 10 9 9 8 8 8 7 7 7 7 6 6 6 6 6 6 6 6 6 5 5 5 5 5 5 5 5 5 5 5 5 5 6 5 5 5
8 6 6 6 6 7 8 8 8 10 10 10 9 9 9 9 8 8 7 7 7 6 6 6 6 6 6 6 6 5 5 5 5 5 5 5 5 5 5 5 5 5 5 5 5 5 5 5 5
7 7 6 6 6 7 8 7 8 10 10 10 10 9 9 8 8 8 7 7 6 6 6 5 5 5 5 5 5 5 5 5 5 5 5 5 5 5 5 4 4 4 4 4 4 4 4 4 4
7 6 7 6 5 6 7 8 9 9 9 8 9 9 8 8 8 7 7 6 6 6 5 5 5 5 5 5 5 5 5 4 4 4 4 4 4 4 4 4 4 4 4 4 4 4 4 4 4
6 6 5 5 5 6 8 8 7 8 7 7 7 7 7 7 7 7 7 6 6 5 5 5 5 4 4 4 4 4 4 4 4 4 4 4 4 3 3 3 3 3 3 3 3 3 3 3 3
5 5 5 5 5 5 6 7 8 7 7 6 6 7 7 6 6 6 6 6 5 5 5 4 4 4 4 4 4 4 4 4 3 3 3 3 3 3 3 3 3 3 3 3 3 3 3 3 3
5 5 4 4 4 5 5 6 7 6 6 6 6 6 6 6 6 6 5 5 5 4 4 4 4 4 4 3 3 3 3 3 3 3 3 3 3 3 3 3 2 3 3 3 3 3 3 2 2
Wind_Speed
13 11 6 2 3 4 6 4 1 5 3 6 6 4 5 7 6 7 5 6 8 10 12 11 10 10 10 11 10 10 10 10 10 10 10 10 11 11 10 9 10 10 10 11 11 11 11 11 11
11 7 3 3 4 5 4 2 4 6 6 5 4 2 4 6 7 8 5 5 7 10 12 11 10 10 10 10 10 10 10 9 9 9 9 9 10 10 10 10 9 9 10 11 11 11 11 11 10
9 6 3 3 5 5 1 5 6 7 5 2 2 4 5 5 7 5 6 6 8 10 12 11 10 10 10 10 10 10 10 9 9 9 9 9 9 9 9 10 10 10 10 10 10 10 10 10 9
4 3 4 4 7 3 2 4 6 5 3 1 2 5 5 6 4 6 7 7 8 9 12 11 10 9 9 9 9 9 9 9 9 9 9 9 9 9 9 9 9 9 9 9 9 9 9 9 8
3 3 4 6 7 2 3 5 3 3 3 2 2 4 5 5 8 8 6 7 8 8 10 11 10 9 9 9 9 9 9 9 9 9 9 9 9 8 8 8 8 8 8 8 8 8 8 8 8
3 3 5 7 6 2 2 3 1 1 1 2 1 3 5 6 7 6 6 7 7 8 9 10 9 9 8 8 8 8 8 8 8 8 8 8 8 8 7 8 7 8 8 7 7 7 8 7 7
3 4 6 6 4 2 2 3 1 1 0 2 2 2 6 6 6 5 6 7 8 8 8 7 7 7 8 7 7 7 7 7 7 7 7 7 7 6 7 7 7 7 8 8 7 7 7 7 6
3 4 6 6 5 2 3 2 2 3 1 3 3 2 4 6 6 5 6 7 7 6 5 6 6 6 6 6 6 7 7 7 7 7 7 6 6 6 6 6 6 7 7 7 6 6 6 6 6
4 4 5 4 3 1 4 1 1 2 1 2 3 4 6 9 7 6 5 4 5 5 4 4 5 5 5 5 5 6 6 6 6 6 6 5 5 5 5 5 5 6 6 6 6 6 6 6 6
3 4 4 3 2 1 1 1 1 2 2 1 3 6 8 7 6 6 5 4 4 4 3 3 3 4 4 4 4 4 4 4 4 4 4 4 4 4 4 5 5 4 5 6 6 6 5 5 4
2 3 2 3 4 3 1 1 1 2 3 1 2 6 7 6 4 4 4 3 3 3 3 3 3 3 3 3 3 3 3 3 3 4 4 4 4 3 4 4 4 4 4 4 5 4 4 3 4
3 4 3 2 3 2 2 2 2 3 2 1 3 6 6 6 5 4 4 3 3 3 2 3 3 3 3 3 2 2 2 2 3 3 3 3 3 3 3 3 3 3 3 3 3 2 3 3 4
5 4 3 2 1 2 3 4 3 4 2 2 3 4 5 5 5 4 3 3 3 3 3 2 2 2 2 2 2 2 2 3 3 3 3 3 3 2 3 3 3 3 3 3 2 3 3 3 3
1 2 3 3 3 2 3 5 4 4 1 1 3 4 5 4 3 3 3 2 3 3 3 3 3 2 2 2 1 2 2 2 3 2 2 3 3 3 2 2 2 2 2 2 2 2 2 2 2
1 3 5 6 5 2 1 6 6 5 3 2 3 4 4 4 4 4 4 3 3 3 3 3 3 2 2 2 1 2 2 2 2 2 2 2 2 2 2 2 2 2 2 3 3 2 3 2 1
5 5 4 5 5 3 3 7 4 4 4 4 4 4 4 4 4 4 3 3 3 3 3 3 2 3 2 2 2 2 2 2 2 2 2 2 2 2 2 2 1 1 2 2 1 1 1 1 1
5 6 6 4 5 3 5 6 5 4 5 5 5 4 4 4 4 3 3 4 3 3 3 3 3 3 2 2 2 2 3 2 2 2 2 2 2 2 2 2 1 1 2 1 1 1 1 0 0
5 5 6 5 4 4 7 8 6 4 5 5 4 4 3 2 3 3 2 4 4 4 3 3 3 3 2 2 1 1 2 2 2 2 2 2 1 1 2 2 1 2 1 0 1 1 1 0 0
6 7 7 5 1 4 8 9 8 5 5 4 3 3 3 2 2 3 3 4 4 4 3 4 4 3 3 2 2 2 2 1 1 2 2 1 1 2 2 1 1 1 1 1 1 1 1 1 1
7 8 7 4 2 4 7 10 9 6 6 4 4 3 3 2 2 3 4 4 3 4 4 4 4 4 3 3 2 2 2 2 2 2 2 2 2 2 2 2 1 1 1 1 1 1 1 0 0
7 6 6 5 4 5 6 8 7 5 4 4 3 3 3 3 3 4 4 4 4 3 4 4 5 4 3 3 2 2 1 1 1 2 2 2 2 2 2 2 1 1 1 1 1 1 1 1 1
5 3 4 4 3 3 3 5 6 6 6 6 5 4 3 3 2 3 3 4 4 4 3 3 3 4 3 4 4 4 3 2 2 2 2 2 2 2 2 2 1 2 1 1 2 2 1 2 2
2 3 3 5 5 4 5 5 6 6 6 6 5 4 4 3 3 3 3 3 3 3 3 3 4 4 4 4 4 4 3 2 2 2 2 2 2 2 2 2 2 1 1 2 2 2 1 1 2
1 2 3 3 1 5 7 7 6 4 6 5 5 5 4 3 3 3 2 2 2 3 3 3 4 4 4 4 4 5 5 4 3 3 3 3 2 2 2 2 2 2 2 2 2 3 3 2 2
0 0 1 2 4 6 5 6 6 3 2 3 4 4 3 3 2 2 3 2 2 3 3 3 4 4 4 4 4 4 4 4 5 4 4 3 2 2 3 2 2 2 2 3 2 2 3 3 3
4 3 3 3 4 3 3 7 5 2 2 2 3 4 4 3 3 2 3 3 3 3 3 3 4 4 4 4 4 4 4 4 3 4 4 4 3 3 3 3 2 2 2 2 2 2 3 3 3
2 3 1 2 3 4 6 5 2 3 2 1 2 2 2 2 1 2 2 3 3 3 3 3 3 3 4 4 4 4 4 3 4 4 3 3 3 3 4 4 3 2 2 2 2 2 2 2 3
2 0 1 2 2 5 6 6 4 4 3 2 2 1 1 1 1 1 1 2 3 3 3 3 3 4 3 4 3 3 3 3 3 3 4 4 3 3 4 4 4 4 3 3 3 3 3 2 3
2 2 2 3 3 3 5 4 1 2 2 2 0 0 1 2 1 1 1 0 1 2 3 2 3 3 3 3 3 3 3 3 3 3 4 3 3 3 4 4 4 4 4 4 4 4 4 4 4
2 3 4 3 4 4 4 5 2 4 4 3 2 1 2 2 2 1 1 1 1 1 2 3 3 3 3 3 3 3 3 2 3 3 3 3 3 3 3 3 4 4 4 4 5 5 5 5 4
Wind_Direction
300 270 251 255 243 232 238 236 89 79 63 45 37 28 39 33 42 102 117 87 98 108 112 106 99 96 91 87 84 83 85 84 82 81 80 79 78 73 68 72 79 79 77 76 76 74 72 72 71
293 282 262 240 243 241 229 180 88 75 71 64 42 33 66 69 72 101 106 98 100 108 110 108 102 97 92 90 86 82 81 83 85 83 81 81 80 75 70 69 74 78 77 77 77 75 73 72 69
275 268 252 237 241 254 297 79 85 86 85 84 78 40 43 68 84 95 104 114 100 101 106 109 107 101 97 92 89 86 81 77 81 84 83 81 80 78 76 72 70 72 75 78 79 77 74 72 70
274 244 241 245 250 264 349 68 83 90 88 102 110 85 71 58 74 97 108 106 102 97 103 111 109 105 102 96 92 88 82 76 76 79 81 82 82 81 81 78 75 72 74 78 79 78 76 73 69
248 248 235 237 247 241 48 61 83 130 156 164 152 104 88 74 88 101 106 99 99 96 100 112 110 107 105 100 94 90 84 79 76 76 76 80 81 82 81 80 80 78 80 83 83 79 76 74 69
257 249 242 235 234 198 121 95 119 173 145 118 115 106 104 103 97 106 102 95 92 94 97 109 111 109 105 101 98 94 89 84 81 78 74 74 76 81 82 80 79 80 87 88 86 84 78 74 71
269 256 253 256 242 194 116 84 69 270 89 72 15 85 117 107 106 111 104 94 84 85 92 100 104 105 103 101 100 97 94 88 82 81 78 74 72 76 79 81 79 79 86 88 87 85 81 76 72
299 281 254 248 242 217 105 85 29 347 357 54 11 66 120 128 120 111 101 96 93 85 82 95 99 99 98 100 105 101 100 93 85 82 80 77 74 72 78 79 79 79 83 89 91 89 85 79 73
274 255 251 251 259 170 111 127 107 357 346 57 58 56 107 124 129 121 114 107 107 103 96 85 96 96 97 105 107 103 106 102 95 91 86 76 73 75 78 81 81 82 83 89 89 94 87 78 70
243 243 259 319 354 10 114 173 185 222 225 165 95 88 110 126 137 141 146 142 133 124 115 102 92 102 103 104 106 110 107 112 108 103 93 82 70 77 83 86 84 80 85 89 85 87 84 74 65
248 253 285 346 21 15 318 234 220 240 239 214 125 126 128 137 149 156 154 146 139 124 113 111 98 102 105 102 110 113 115 115 112 106 101 92 84 82 86 89 81 73 73 79 84 86 82 71 68
248 277 293 330 30 6 308 288 270 264 275 34 96 124 142 157 167 173 170 158 142 132 116 104 96 97 101 104 105 106 104 101 86 95 102 92 81 78 79 86 90 84 76 75 78 78 77 71 65
237 252 271 302 316 281 295 280 272 258 294 38 97 131 147 165 174 173 161 157 142 140 134 117 115 102 99 102 108 100 100 99 89 88 95 93 94 98 84 74 83 80 76 75 68 62 66 66 56
273 271 262 252 250 237 265 275 254 244 190 158 155 158 163 176 172 161 154 171 161 148 141 132 136 119 112 100 103 113 109 103 102 92 87 97 94 97 99 87 78 75 87 83 75 73 71 64 69
238 251 249 224 219 198 288 267 231 225 187 199 184 171 170 179 176 179 176 179 172 152 135 134 140 127 132 132 130 126 130 121 114 109 112 106 101 106 104 109 98 74 88 91 89 80 70 61 73
219 226 237 210 193 173 214 257 236 184 193 210 209 190 190 190 184 178 175 169 162 147 143 149 143 141 150 150 142 128 121 123 117 109 124 119 109 110 97 112 115 87 85 84 103 107 80 35 17
216 236 237 222 189 188 219 255 254 189 203 219 214 205 203 193 185 172 170 162 155 155 154 157 150 150 158 148 132 129 124 121 115 111 110 118 115 112 105 119 112 114 95 105 122 95 118 86 2
232 249 248 235 189 206 229 249 259 225 223 231 222 204 200 180 176 155 153 154 154 151 149 154 150 149 150 137 110 122 127 114 108 111 113 111 116 124 111 114 113 117 132 151 138 113 90 123 261
273 269 268 272 226 231 243 257 261 240 233 230 225 194 177 182 164 154 156 147 144 148 154 162 158 161 160 163 163 168 169 164 167 133 140 135 126 121 112 121 119 126 165 187 167 141 128 17 15
267 264 273 284 265 258 259 261 259 239 223 222 218 190 180 179 167 163 154 149 154 159 167 177 173 176 175 177 179 182 177 186 185 152 151 165 154 133 133 132 157 170 162 172 160 151 165 295 97
256 258 270 279 293 255 265 270 244 225 206 203 213 189 187 185 181 170 167 160 159 165 179 189 182 182 180 161 160 160 139 142 177 192 191 162 158 148 142 149 156 161 163 198 191 189 181 202 231
264 310 305 290 287 254 226 271 246 217 207 209 212 202 197 191 169 162 168 169 172 175 178 185 183 182 184 172 173 172 181 203 223 204 202 183 162 155 153 158 169 174 174 194 208 194 210 179 205
295 349 301 271 267 280 239 242 265 210 217 207 201 196 186 181 173 167 169 177 174 169 178 188 185 190 190 184 184 182 188 202 205 193 193 206 177 161 167 173 174 188 181 184 204 194 205 202 195
332 324 279 261 253 254 224 218 262 215 208 195 186 188 185 186 183 164 164 162 164 168 181 192 192 196 192 186 186 188 191 187 191 204 206 208 208 200 186 194 199 200 191 190 202 201 200 212 211
285 66 315 246 224 242 209 219 244 216 163 175 180 187 187 179 178 174 179 184 187 185 192 201 197 198 192 188 194 196 196 191 198 205 206 204 210 225 219 211 207 209 206 190 181 206 208 205 210
220 211 199 228 244 267 216 232 241 166 98 99 158 178 186 182 182 192 191 192 196 198 196 200 196 197 195 195 199 199 199 199 205 208 206 209 213 216 209 211 214 216 221 210 191 210 221 201 209
219 223 247 281 290 274 239 233 239 143 123 85 116 154 186 186 199 212 203 193 192 197 204 207 206 202 201 204 203 200 203 206 207 207 208 214 218 217 199 204 214 217 216 218 210 214 225 215 209
263 227 145 200 242 261 258 237 231 191 191 169 174 179 305 354 324 266 209 183 191 197 203 204 214 212 209 211 207 209 204 215 215 205 208 213 216 213 209 210 211 214 217 215 214 223 217 226 227
199 197 219 230 239 247 268 268 1 155 148 151 165 61 355 338 334 335 339 320 190 187 193 211 213 212 211 211 205 200 209 217 213 212 212 212 215 210 213 215 211 214 220 219 212 218 214 223 239
233 209 185 199 247 242 264 273 25 72 71 58 15 5 1 359 351 341 338 347 312 238 207 213 218 209 207 212 206 207 210 208 213 213 215 213 217 216 214 217 217 217 220 220 213 217 219 221 234
Height
1501 1502 1504 1506 1507 1508 1504 1494 1488 1491 1494 1498 1499 1500 1502 1507 1511 1522 1522 1520 1520 1520 1521 1522 1523 1524 1525 1526 1527 1527 1528 1529 1529 1530 1530 1530 1531 1531 1531 1532 1532 1532 1532 1532 1532 1533 1533 1533 1534
1500 1502 1505 1505 1507 1509 1501 1491 1492 1495 1498 1500 1501 1503 1504 1509 1513 1517 1519 1520 1521 1521 1521 1522 1523 1525 1526 1526 1527 1528 1528 1529 1529 1530 1530 1531 1531 1531 1532 1532 1532 1532 1533 1533 1533 1533 1533 1534 1534
1501 1503 1505 1503 1502 1503 1498 1491 1494 1497 1499 1501 1503 1504 1507 1513 1515 1517 1519 1520 1521 1521 1521 1523 1524 1525 1526 1527 1527 1528 1528 1529 1529 1530 1530 1531 1531 1532 1532 1532 1532 1532 1533 1533 1533 1533 1534 1534 1534
1502 1504 1503 1503 1501 1495 1493 1493 1495 1498 1501 1502 1504 1507 1511 1515 1516 1518 1519 1520 1521 1521 1522 1523 1524 1525 1526 1527 1528 1528 1529 1529 1530 1530 1531 1531 1531 1532 1532 1532 1532 1533 1533 1533 1533 1533 1534 1534 1535
1503 1503 1503 1502 1498 1493 1493 1495 1497 1499 1501 1503 1504 1507 1513 1515 1516 1517 1519 1520 1521 1521 1522 1523 1524 1525 1526 1527 1527 1528 1529 1529 1530 1530 1530 1531 1531 1532 1532 1532 1532 1532 1533 1533 1533 1534 1534 1534 1535
1503 1500 1503 1502 1496 1493 1494 1496 1498 1499 1501 1503 1504 1507 1513 1515 1516 1518 1519 1520 1521 1521 1522 1523 1524 1525 1525 1526 1527 1528 1528 1529 1529 1530 1530 1531 1531 1531 1532 1532 1532 1532 1532 1533 1533 1534 1534 1534 1534
1503 1500 1500 1496 1495 1494 1496 1497 1499 1500 1501 1504 1505 1508 1512 1515 1516 1517 1519 1520 1520 1521 1521 1522 1523 1524 1525 1526 1526 1527 1528 1529 1529 1529 1530 1530 1531 1531 1531 1531 1532 1532 1532 1532 1533 1533 1533 1534 1534
1500 1500 1496 1495 1494 1496 1496 1499 1501 1502 1503 1505 1506 1507 1512 1514 1515 1517 1518 1519 1520 1520 1521 1522 1522 1523 1524 1525 1526 1527 1527 1528 1529 1529 1529 1530 1530 1530 1531 1531 1531 1531 1531 1532 1532 1533 1533 1533 1534
1500 1503 1498 1494 1494 1496 1497 1499 1502 1503 1504 1505 1506 1508 1510 1512 1514 1516 1517 1518 1519 1520 1520 1521 1521 1522 1523 1524 1525 1526 1526 1527 1528 1528 1528 1529 1529 1530 1530 1530 1531 1531 1531 1531 1532 1532 1533 1533 1533
1499 1501 1496 1493 1494 1496 1497 1500 1502 1503 1503 1505 1507 1508 1509 1511 1513 1514 1515 1516 1517 1518 1519 1520 1520 1521 1522 1523 1523 1524 1525 1526 1527 1527 1527 1528 1528 1529 1529 1529 1530 1530 1530 1531 1531 1531 1532 1532 1533
1497 1497 1495 1495 1496 1497 1499 1500 1501 1502 1503 1504 1506 1507 1508 1510 1512 1513 1514 1515 1516 1517 1518 1519 1519 1520 1520 1521 1522 1523 1524 1524 1525 1526 1526 1527 1527 1528 1528 1528 1529 1529 1529 1530 1530 1530 1531 1531 1532
1497 1496 1496 1497 1498 1499 1500 1500 1501 1501 1503 1503 1504 1505 1507 1508 1510 1511 1512 1514 1514 1515 1516 1517 1517 1518 1519 1520 1520 1521 1522 1523 1524 1524 1525 1525 1526 1526 1527 1527 1528 1528 1528 1529 1529 1529 1530 1530 1531
1496 1497 1497 1498 1498 1499 1500 1500 1500 1501 1502 1502 1502 1504 1505 1507 1508 1510 1511 1512 1513 1513 1514 1515 1515 1516 1517 1518 1518 1519 1520 1521 1522 1523 1523 1524 1524 1525 1525 1526 1526 1527 1527 1527 1528 1528 1528 1529 1530
1496 1496 1497 1497 1498 1499 1500 1499 1500 1499 1500 1501 1501 1502 1504 1505 1507 1508 1509 1510 1511 1511 1511 1512 1513 1514 1515 1515 1516 1517 1518 1519 1520 1521 1521 1522 1523 1523 1524 1524 1525 1525 1526 1526 1527 1527 1527 1527 1528
1496 1497 1496 1495 1496 1497 1499 1499 1497 1496 1498 1499 1500 1501 1502 1503 1504 1505 1506 1507 1508 1509 1509 1510 1511 1511 1512 1513 1514 1515 1516 1517 1518 1518 1520 1520 1521 1522 1522 1523 1523 1524 1524 1525 1525 1525 1526 1526 1526
1496 1497 1498 1493 1493 1496 1502 1500 1493 1494 1496 1497 1498 1499 1500 1501 1502 1503 1504 1505 1506 1506 1507 1507 1508 1509 1510 1511 1512 1513 1514 1515 1515 1516 1517 1518 1519 1520 1520 1521 1521 1522 1523 1523 1523 1523 1524 1524 1525
1495 1497 1495 1493 1492 1494 1498 1497 1492 1492 1493 1494 1495 1496 1497 1498 1499 1500 1501 1502 1503 1503 1504 1505 1506 1506 1507 1508 1509 1510 1511 1512 1513 1514 1515 1515 1516 1517 1518 1518 1519 1520 1521 1521 1521 1521 1522 1523 1523
1495 1493 1490 1491 1490 1493 1495 1494 1490 1490 1491 1491 1492 1493 1494 1495 1496 1497 1498 1499 1500 1501 1502 1503 1503 1504 1505 1506 1506 1507 1508 1509 1510 1511 1512 1513 1514 1515 1515 1516 1517 1517 1518 1518 1519 1519 1520 1521 1521
1490 1491 1491 1489 1489 1492 1492 1491 1487 1486 1487 1488 1489 1490 1491 1492 1493 1495 1496 1496 1497 1498 1499 1500 1500 1501 1502 1502 1503 1504 1505 1506 1507 1508 1509 1510 1511 1512 1512 1513 1514 1515 1515 1516 1516 1517 1518 1518 1519
1490 1492 1492 1490 1489 1490 1490 1488 1484 1483 1484 1485 1486 1487 1488 1489 1491 1492 1493 1493 1494 1494 1495 1497 1497 1498 1499 1500 1501 1501 1502 1503 1504 1505 1506 1507 1508 1509 1510 1510 1511 1512 1512 1513 1513 1514 1515 1516 1517
1490 1492 1492 1492 1490 1489 1491 1488 1482 1480 1480 1482 1483 1484 1486 1487 1488 1489 1490 1490 1491 1491 1492 1493 1494 1495 1496 1497 1498 1499 1500 1500 1501 1502 1503 1504 1505 1506 1506 1507 1508 1508 1509 1510 1510 1511 1512 1513 1514
1492 1490 1491 1493 1496 1496 1491 1498 1482 1477 1478 1479 1480 1482 1483 1484 1485 1486 1487 1487 1488 1488 1489 1490 1491 1492 1493 1494 1494 1495 1495 1496 1497 1499 1500 1501 1502 1502 1503 1504 1505 1505 1506 1507 1508 1508 1509 1510 1511
1492 1491 1492 1493 1494 1498 1492 1496 1485 1474 1476 1477 1477 1479 1480 1482 1483 1483 1484 1485 1485 1485 1486 1486 1487 1488 1489 1490 1491 1491 1492 1493 1495 1496 1497 1497 1498 1499 1499 1500 1501 1502 1502 1503 1504 1505 1506 1507 1507
1492 1492 1493 1493 1497 1502 1490 1492 1484 1474 1472 1473 1474 1476 1477 1479 1480 1481 1481 1482 1482 1482 1483 1483 1484 1484 1485 1486 1487 1488 1488 1489 1490 1492 1492 1493 1494 1495 1495 1496 1497 1498 1499 1500 1501 1501 1502 1503 1504
1493 1499 1503 1502 1502 1495 1482 1485 1479 1468 1467 1468 1471 1473 1475 1476 1477 1478 1478 1478 1478 1479 1479 1480 1480 1481 1481 1482 1483 1484 1485 1486 1487 1487 1488 1489 1489 1490 1491 1493 1493 1494 1495 1496 1497 1498 1498 1499 1500
1493 1496 1503 1503 1497 1488 1484 1483 1473 1466 1465 1466 1468 1470 1472 1473 1474 1475 1475 1475 1476 1476 1476 1476 1477 1477 1478 1478 1479 1480 1482 1482 1483 1484 1484 1485 1485 1486 1488 1489 1490 1490 1491 1493 1493 1494 1495 1496 1496
1492 1495 1494 1498 1498 1497 1484 1472 1468 1465 1465 1466 1467 1469 1470 1471 1472 1473 1473 1473 1473 1473 1473 1473 1473 1474 1474 1475 1476 1477 1477 1478 1479 1479 1480 1481 1482 1483 1484 1485 1485 1486 1487 1489 1490 1490 1491 1492 1492
1491 1492 1497 1499 1499 1494 1477 1472 1472 1467 1466 1466 1466 1467 1468 1469 1470 1470 1470 1470 1470 1470 1470 1470 1471 1471 1471 1472 1473 1473 1474 1474 1475 1475 1476 1476 1477 1478 1479 1480 1481 1482 1483 1485 1486 1486 1487 1488 1488
1493 1495 1495 1495 1494 1494 1487 1477 1464 1463 1464 1465 1466 1467 1468 1468 1468 1468 1468 1468 1468 1467 1467 1467 1467 1468 1468 1469 1469 1469 1469 1470 1471 1471 1472 1472 1473 1474 1475 1476 1477 1478 1479 1480 1482 1483 1483 1484 1484
1489 1490 1494 1500 1498 1492 1490 1482 1465 1464 1464 1466 1467 1467 1467 1467 1467 1466 1466 1465 1465 1465 1465 1464 1464 1465 1465 1465 1465 1465 1465 1466 1466 1467 1468 1469 1469 1470 1471 1472 1473 1473 1475 1476 1477 1478 1479 1480 1480